Tracking 23441 objects as of 15-Jun-2021
HD Live streaming from Space Station
objects crossing your sky now

GAOFEN 9 04

Track GAOFEN 9 04 now!
10-day predictions


NORAD ID: 46025
Int'l Code: 2020-054A
Perigee: 493.8 km
Apogee: 510.6 km
Inclination: 97.4 °
Period: 94.5 minutes
Semi major axis: 6873 km
RCS: Unknown
Launch date: August 6, 2020
Source: People's Republic of China (PRC)
Launch site: Jiuquan Satellite Launch Center, China (JSC)
aabbcc
Your satellite tracking list
Your tracking list is empty




NASA's NSSDC Master Catalog

Two Line Element Set (TLE):
1 46025U 20054A   21166.46564081  .00001013  00000-0  45275-4 0  9990
2 46025  97.4381 241.8857 0012156 235.0965 248.9348 15.23577871 47691
Source of the keplerian elements: AFSPC